Tracking 35237 objects as of 6-Sep-2026
HD Live streaming from Space Station
objects crossing your sky now

OBJECT C


OBJECT C is no longer on orbit


NORAD ID: 63522
Int'l Code: 2025-072C
Launch date: April 8, 2025
Source: Commonwealth of Independent States (former USSR) (CIS)
Launch site: TYURATAM MISSILE AND SPACE COMPLEX (TTMTR)
Decay date: 2025-04-12
Your satellite tracking list
Your tracking list is empty




NASA's NSSDC Master Catalog

Two Line Element Set (TLE):
1 63522U 25072C   25098.80765435  .08929461  11999-4  31616-2 0  9997
2 63522  51.6448 290.3777 0056083  77.6310  25.1594 16.19975563    63
Source of the keplerian elements: AFSPC